Volver al catálogo

STARLINK-32540

ActivoComunicacionesVLEO
NORAD 61723·PAYLOAD·🇺🇸 United States

Lanzado Oct 30, 2024 desde Cape Canaveral Space Force Station

Loading…

Próximos Pases (próximas 24 horas)

TLE

ActualizadoSource: CelesTrak SupGP

Época: Sep 14, 2026, 21:01 UTC

1 61723C 24196S   26257.87618056  .00054924  00000+0  16230-2 0  2578
2 61723  53.1578 263.6518 0001237  89.8600 229.4561 15.34358428    18

Sigue STARLINK-32540 en tiempo real con AllMySat

Download on the App Store